Zurück zum Katalog

ARABSAT 1B R/B

PAM-D

AktivKommunikationGTO
NORAD 15836·ROCKET BODY·🇺🇸 United States

Gestartet Jun 17, 1985 von Cape Canaveral Space Force Station

Loading…

TLE

AlterndSource: Space-Track

Epoche: Sep 14, 2026, 12:59 UTC

1 15836U 85048G   26257.54151936 -.00000236  00000-0  20661-3 0  9994
2 15836  27.1203 342.0845 7102420 101.2749 339.2803  2.42743031112420

Verfolge ARABSAT 1B R/B in Echtzeit mit AllMySat

Download on the App Store